User: anonymous   Login
Location: *
(2.5500°S, 65.9667°W)
Time: 22:11:34
(UTC+00:00)
Language:

Ariane H10 - Orbit

View from above orbital plane
View from above orbital plane
View from above satellite
View from above satellite

Ground track
Ground track

The orbit data is extracted from the following two-line orbital elements,

1 19689U 88109C   22016.79603066  .00000018  00000-0  56417-3 0  9992
2 19689   6.6319 171.3111 7174408 201.6101  97.4806  2.28934178241079
Epoch (UTC): 16 January 2022 19:06:17
Eccentricity: 0.7174408
inclination: 6.6319°
perigee height: 493 km
apogee height: 35386 km
right ascension of ascending node: 171.3111°
argument of perigee: 201.6101°
revolutions per day: 2.28934178
mean anomaly at epoch: 97.4806°
orbit number at epoch: 24107

The dashed part of the orbit path shows where the satellite is in the earth's shadow,  

DLR